Weather History for Talkeetna, AK

Change the Weather History Date:

Thursday, May 2, 2013

  Actual Average Record
Temperature  
Mean Temperature 36 °F -  
Max Temperature 39 °F 51 °F 73 °F (2014)
Min Temperature 32 °F 29 °F 15 °F (1964)
Degree Days  
Heating Degree Days 30    
Moisture  
Dew Point 31 °F    
Average Humidity 85    
Maximum Humidity 100    
Minimum Humidity 56    
Precipitation  
Precipitation 0.28 in - - ()
Sea Level Pressure  
Sea Level Pressure 29.82 in    
Wind  
Wind Speed 0 mph (NE)    
Max Wind Speed 5 mph    
Max Gust Speed -    
Visibility 5 miles    
Events Fog , Rain , Snow    
Averages and records for this station are not official NWS values.
T = Trace of Precipitation, MM = Missing Value Source: NWS Daily Summary

Daily Weather History Graph

Daily Weather History Graph

Search for Another Location

Airport:

Trip Planner

Search our weather history database for the weather conditions in past years. The results will help you decide how hot, cold, wet, or windy it might be!

Date:

Astronomy

May. 02, 2013 Rise Set
Actual Time 5:40 AM AKDT 10:16 PM AKDT
Civil Twilight 4:38 AM AKDT 11:19 PM AKDT
Nautical Twilight 2:24 AM AKDT 1:24 AM AKDT
Astronomical Twilight Sun does not rise Sun does not rise
Moon 3:48 AM AKDT (5/2) 1:07 PM AKDT (5/2)
Length of Visible Light 18h 40m
Length of Day
16h 35m
Last Quarter, 46% of the Moon is Illuminated
May 2
Last Quarter
May 9
New
May 17
First Quarter
May 24
Full
May 31
Last Quarter

Hourly Weather History & Observations

Time (AKDT) Temp. Windchill Dew Point Humidity Pressure Visibility Wind Dir Wind Speed Gust Speed Precip Events Conditions
12:53 AM 37.0 °F - 24.1 °F 59% 29.64 in 10.0 mi Calm Calm - N/A   Overcast
1:53 AM 35.1 °F - 23.0 °F 61% 29.66 in 10.0 mi Calm Calm - N/A   Overcast
2:53 AM 35.1 °F - 24.1 °F 64% 29.69 in 10.0 mi Calm Calm - N/A   Overcast
3:53 AM 34.0 °F - 24.1 °F 67% 29.70 in 10.0 mi Calm Calm - N/A   Overcast
4:53 AM 35.1 °F - 24.1 °F 64% 29.72 in 10.0 mi Calm Calm - N/A   Overcast
5:53 AM 34.0 °F - 28.0 °F 79% 29.73 in 10.0 mi Calm Calm - 0.00 in   Overcast
6:53 AM 33.1 °F - 28.0 °F 82% 29.73 in 9.0 mi Calm Calm - N/A   Overcast
7:53 AM 34.0 °F - 27.0 °F 75% 29.75 in 10.0 mi Calm Calm - N/A   Mostly Cloudy
8:53 AM 35.1 °F - 27.0 °F 72% 29.77 in 10.0 mi Calm Calm - N/A   Overcast
9:53 AM 36.0 °F 32.1 °F 27.0 °F 70% 29.78 in 10.0 mi South 4.6 mph - N/A   Overcast
10:53 AM 37.0 °F - 27.0 °F 67% 29.80 in 10.0 mi Calm Calm - N/A   Overcast
11:53 AM 37.9 °F - 30.0 °F 73% 29.81 in 10.0 mi Calm Calm - N/A   Overcast
12:53 PM 39.0 °F - 30.0 °F 70% 29.83 in 10.0 mi Calm Calm - 0.00 in Rain Light Rain
1:53 PM 37.0 °F - 30.9 °F 79% 29.85 in 10.0 mi Calm Calm - 0.00 in Rain Light Rain
2:29 PM 37.4 °F - 32.0 °F 81% 29.84 in 10.0 mi Calm Calm - 0.00 in Rain Light Rain
2:53 PM 37.0 °F - 32.0 °F 82% 29.86 in 10.0 mi Calm Calm - 0.00 in Rain Light Rain
3:10 PM 37.4 °F - 33.8 °F 87% 29.84 in 10.0 mi Calm Calm - 0.00 in Rain Light Rain
3:22 PM 37.4 °F - 33.8 °F 87% 29.84 in 8.0 mi Calm Calm - 0.01 in Rain Light Rain
3:53 PM 37.0 °F - 34.0 °F 89% 29.87 in 9.0 mi Calm Calm - 0.02 in Rain Light Rain
4:20 PM 37.4 °F 34.9 °F 33.8 °F 87% 29.85 in 10.0 mi NNE 3.5 mph - 0.01 in Rain Light Rain
4:36 PM 35.6 °F 32.8 °F 33.8 °F 93% 29.85 in 7.0 mi NE 3.5 mph - 0.02 in Rain Light Rain
4:53 PM 36.0 °F - 34.0 °F 93% 29.87 in 9.0 mi Calm Calm - 0.03 in Rain Light Rain
5:45 PM 35.6 °F 32.8 °F 33.8 °F 93% 29.85 in 6.0 mi ENE 3.5 mph - 0.03 in Rain Light Rain
5:53 PM 35.1 °F 32.2 °F 33.1 °F 92% 29.87 in 5.0 mi NNE 3.5 mph - 0.04 in Rain Light Rain
6:31 PM 35.6 °F 32.8 °F 33.8 °F 93% 29.85 in 3.0 mi NNE 3.5 mph - 0.02 in Snow Light Snow
6:43 PM 33.8 °F - 33.8 °F 100% 29.85 in 2.0 mi Calm Calm - 0.04 in Snow Light Snow
6:47 PM 33.8 °F - 33.8 °F 100% 29.85 in 1.5 mi Calm Calm - 0.04 in Snow Light Snow
6:53 PM 34.0 °F - 33.1 °F 96% 29.87 in 1.2 mi Calm Calm - 0.05 in Snow Light Snow
7:05 PM 33.8 °F - 33.8 °F 100% 29.85 in 0.8 mi Calm Calm - 0.01 in Snow Light Snow
7:31 PM 33.8 °F - 32.0 °F 93% 29.85 in 1.0 mi Calm Calm - 0.03 in Snow Light Snow
7:38 PM 33.8 °F - 32.0 °F 93% 29.85 in 0.8 mi Calm Calm - 0.04 in Snow Light Snow
7:51 PM 33.8 °F - 32.0 °F 93% 29.85 in 0.5 mi Calm Calm - 0.05 in Fog , Snow Snow
7:52 PM 33.1 °F - 32.0 °F 96% 29.87 in 0.5 mi Calm Calm - 0.05 in Fog , Snow Snow
7:59 PM 33.8 °F - 32.0 °F 93% 29.85 in 0.8 mi Calm Calm - 0.01 in Snow Light Snow
8:15 PM 33.8 °F - 32.0 °F 93% 29.85 in 0.8 mi Calm Calm - 0.02 in Snow Light Snow
8:36 PM 33.8 °F - 32.0 °F 93% 29.85 in 0.5 mi Calm Calm - 0.04 in Fog , Snow Snow
8:53 PM 33.1 °F - 32.0 °F 96% 29.88 in 0.5 mi Calm Calm - 0.05 in Fog , Snow Snow
9:03 PM 33.8 °F - 32.0 °F 93% 29.86 in 0.8 mi Calm Calm - 0.01 in Snow Light Snow
9:25 PM 33.8 °F - 32.0 °F 93% 29.86 in 0.5 mi Calm Calm - 0.04 in Fog , Snow Snow
9:53 PM 33.1 °F - 32.0 °F 96% 29.88 in 0.5 mi Calm Calm - 0.06 in Fog , Snow Snow
10:04 PM 33.8 °F - 32.0 °F 93% 29.86 in 0.5 mi Calm Calm - 0.02 in Fog , Snow Snow
10:26 PM 32.0 °F - 32.0 °F 100% 29.86 in 1.0 mi Calm Calm - 0.04 in Snow Light Snow
10:53 PM 32.0 °F - 32.0 °F 100% 29.88 in 1.0 mi Calm Calm - 0.06 in Snow Light Snow
11:21 PM 33.8 °F - 32.0 °F 93% 29.86 in 1.2 mi Calm Calm - 0.03 in Snow Light Snow
11:44 PM 33.8 °F - 32.0 °F 93% 29.86 in 1.0 mi Calm Calm - 0.04 in Snow Light Snow
11:53 PM 33.1 °F - 32.0 °F 96% 29.88 in 1.2 mi Calm Calm - 0.05 in Snow Light Snow